[[{"header":{"parameterUnit":"m.s-1","parameterCategory":1,"la1":30.2991,"la2":30.254,"lo1":-89.0895,"lo2":-89.0444,"dy":0.0017,"dx":0.0017,"nx":28,"ny":28,"refTime":"2024-11-22T03:00:00:Z","depth":0,"parameterNumber":2,"parameterNumberName":"U-component_of_WINDS"},"data":[0,0,0,0,0,0,0,0,0,0,0,0,0,0,0,0,0,0,0,0,0,0,0,0,0,0,0,0,0,0,0,0,0,0,0,0,0,0,0,0,0,0,0,0,0,0,0,0,0,0,0,0,0,0,0,0,0,0,0.8272,0.8272,0,0.8272,0.8272,0.8272,0.8278,0.8278,0.8278,0.8278,0.8276,0.8276,0.8276,0,0,0,0,0,0,0,0,0,0,0,0,0,0.8277,0.8277,0.8272,0.8272,0.8272,0.8272,0.8272,0.8272,0.8277,0.8278,0.8278,0.8278,0.8276,0.8276,0.8276,0,0,0,0,0,0,0,0,0,0,0,0,0,0.8276,0.8277,0.8272,0.8275,0.8275,0.8272,0.8272,0.8272,0.8277,0.8278,0.8278,0.8278,0.8277,0.8276,0.8276,0.827,0,0,0.8275,0.8275,0,0,0,0,0,0,0,0,0.8276,0.8275,0.8274,0.8275,0.8275,0.8275,0.8273,0.8271,0.8277,0.8277,0.8278,0.8278,0.8276,0.8275,0.8275,0.827,0.827,0.8275,0.8275,0.8275,0.8275,0,0,0,0,0,0,0,0.8276,0.8275,0.8272,0.8274,0.8275,0.8276,0.8276,0.8273,0.8275,0.8277,0.8277,0.8277,0.8276,0.8275,0.8275,0.827,0.8275,0.8275,0.8275,0.8275,0.826,0.826,0,0,0,0,0,0,0.8276,0.8275,0.8272,0.8272,0.8276,0.8276,0.8276,0.8275,0.8275,0.8275,0.8277,0.8277,0.8276,0.8275,0.8275,0.8268,0.8275,0.8275,0.8274,0.826,0.826,0.826,0,0,0,0,0,0,0.8276,0.8275,0.8272,0.8274,0.8274,0.8275,0.8274,0.8275,0.8274,0.8275,0.8275,0.8276,0.8276,0.8275,0.8271,0.8268,0.8274,0.8274,0.826,0.826,0.826,0.8253,0,0,0,0,0,0,0.8276,0.8275,0.8273,0.8274,0.8273,0.8268,0.8274,0.8274,0.8274,0.8274,0.8274,0.8274,0.8276,0.8272,0.8271,0.8268,0.8274,0.8261,0.826,0.826,0.8254,0.8253,0.8252,0,0,0,0,0,0.8276,0.827,0.8273,0.8272,0.827,0.8268,0.8268,0.827,0.8273,0.8271,0.8272,0.8274,0.8269,0.8271,0.827,0.8267,0.8261,0.826,0.826,0.8254,0.8253,0.8252,0,0,0,0,0,0,0.8268,0.827,0.8273,0.8268,0.8268,0.8269,0.8266,0.8269,0.8267,0.8268,0.8271,0.8271,0.8266,0.8266,0.8269,0.8261,0.8265,0.8265,0.8261,0.826,0.8259,0.8259,0.8274,0,0,0,0,0,0.8266,0.8264,0.8266,0.8261,0.8261,0.8264,0.8263,0.8265,0.8265,0.8265,0.8265,0.8265,0.8263,0.8262,0.826,0.8254,0.8255,0.8252,0.8251,0.825,0.8249,0.8247,0.8246,0.8258,0.8258,0.8258,0,0,0.8261,0.8262,0.8261,0.826,0.826,0.8258,0.8264,0.8261,0.8259,0.8264,0.826,0.8261,0.8261,0.8256,0.8254,0.8256,0.8246,0.8249,0.8249,0.8248,0.8246,0.8245,0.8244,0.8258,0.8258,0.8258,0,0,0.8251,0.8252,0.8248,0.8249,0.8249,0.8251,0.825,0.8252,0.8252,0.8249,0.8253,0.8251,0.8248,0.8248,0.8247,0.8239,0.8241,0.8239,0.8233,0.8231,0.823,0.8229,0.8226,0.8225,0.8238,0.8238,0.8238,0,0.8244,0.8242,0.8246,0.8243,0.8243,0.8248,0.8244,0.8245,0.8245,0.8244,0.8247,0.8244,0.8244,0.8239,0.8238,0.8237,0.8236,0.8238,0.823,0.8229,0.8228,0.8226,0.8225,0.8238,0.8238,0.8238,0.8238,0,0.8234,0.8232,0.8229,0.823,0.8229,0.8226,0.823,0.8229,0.8231,0.8233,0.823,0.8231,0.823,0.8229,0.8231,0.8225,0.8227,0.823,0.8233,0.8227,0.8224,0.8223,0.8237,0.8237,0.8237,0.8237,0,0,0.8217,0.8221,0.822,0.8221,0.8223,0.8222,0.8219,0.8219,0.8218,0.8218,0.8216,0.8214,0.8218,0.8217,0.8219,0.8218,0.8211,0.8221,0.8221,0.8219,0.8206,0.8203,0.8202,0.8214,0.8213,0.8213,0.8206,0,0.8207,0.8203,0.8208,0.8203,0.8201,0.8207,0.8205,0.8206,0.8208,0.8207,0.821,0.8208,0.8212,0.8212,0.8211,0.8212,0.8209,0.8213,0.8211,0.8211,0.8211,0.82,0.8197,0.819,0.8205,0.8204,0.8204,0,0.8195,0.8195,0.8191,0.8194,0.8194,0.8192,0.8193,0.8192,0.8193,0.8195,0.8196,0.8199,0.8197,0.8202,0.8199,0.8202,0.8202,0.8203,0.8203,0.8202,0.8207,0.8199,0.8188,0.8186,0.8203,0.8203,0.8203,0,0.8183,0.8183,0.818,0.8181,0.8185,0.8183,0.8185,0.8187,0.8187,0.8188,0.8188,0.8188,0.8188,0.8188,0.8192,0.8195,0.8189,0.8194,0.819,0.819,0.8188,0.8188,0.8176,0.8188,0.8189,0.8189,0.8189,0,0.8171,0.8168,0.8175,0.8173,0.817,0.8175,0.8172,0.8174,0.8177,0.8175,0.8181,0.8179,0.8185,0.8184,0.8187,0.8185,0.8185,0.8186,0.8187,0.8185,0.8185,0.8184,0.8185,0.8188,0.8188,0.8188,0.8188,0,0.8156,0.8161,0.8159,0.8163,0.8165,0.8162,0.8166,0.8165,0.8168,0.8166,0.8166,0.8171,0.8171,0.8175,0.8175,0.8177,0.8174,0.8175,0.8173,0.8173,0.817,0.817,0.8156,0.8155,0.8169,0.8169,0.8169,0,0.8148,0.8146,0.8151,0.8151,0.8152,0.8152,0.8153,0.8158,0.8158,0.8161,0.816,0.816,0.8161,0.816,0.8164,0.8164,0.8166,0.8161,0.8166,0.8165,0.8166,0.8165,0.8165,0.816,0.816,0.816,0.8159,0,0.8133,0.8136,0.8136,0.8138,0.8138,0.814,0.8142,0.8141,0.8148,0.8148,0.8148,0.8149,0.815,0.815,0.8152,0.8154,0.8158,0.8158,0.8157,0.8155,0.8154,0.8155,0.817,0.8158,0.8158,0.8158,0.8158,0.8159,0.8121,0.8119,0.8123,0.8124,0.8126,0.8128,0.8127,0.8131,0.8132,0.8133,0.8137,0.8137,0.814,0.8143,0.8144,0.8144,0.8147,0.8145,0.8145,0.8144,0.8144,0.8155,0.8145,0.8145,0.8145,0.8145,0.8145,0,0.8105,0.8108,0.8109,0.8112,0.8113,0.8118,0.8121,0.8121,0.8121,0.8124,0.8125,0.8126,0.8127,0.8131,0.8132,0.8132,0.8134,0.8132,0.8132,0.8132,0.8141,0.8142,0.813,0.813,0.813,0.813,0.813,0.813,0.8097,0.8095,0.8099,0.8099,0.8102,0.8103,0.8104,0.8106,0.8108,0.8109,0.811,0.8114,0.8117,0.8119,0.8121,0.8122,0.8122,0.812,0.8121,0.813,0.8131,0.8132,0.8133,0.812,0.812,0.8112,0.8112,0.8112]},{"header":{"parameterUnit":"m.s-1","parameterCategory":1,"la1":30.2991,"la2":30.254,"lo1":-89.0895,"lo2":-89.0444,"dy":0.0017,"dx":0.0017,"nx":28,"ny":28,"refTime":"2024-11-22T03:00:00:Z","depth":0,"parameterNumber":3,"parameterNumberName":"V-component_of_WINDS"},"data":[0,0,0,0,0,0,0,0,0,0,0,0,0,0,0,0,0,0,0,0,0,0,0,0,0,0,0,0,0,0,0,0,0,0,0,0,0,0,0,0,0,0,0,0,0,0,0,0,0,0,0,0,0,0,0,0,0,0,-5.858,-5.8581,0,-5.8685,-5.8686,-5.8687,-5.8654,-5.8651,-5.8649,-5.8647,-5.875,-5.8754,-5.8759,0,0,0,0,0,0,0,0,0,0,0,0,0,-5.8345,-5.835,-5.858,-5.8581,-5.8582,-5.8685,-5.8686,-5.8688,-5.8654,-5.8651,-5.8648,-5.8646,-5.8748,-5.8754,-5.876,0,0,0,0,0,0,0,0,0,0,0,0,0,-5.8448,-5.8351,-5.8579,-5.8578,-5.8579,-5.8684,-5.8686,-5.8688,-5.8654,-5.8651,-5.8648,-5.8645,-5.8746,-5.8753,-5.876,-5.8872,0,0,-5.8782,-5.8786,0,0,0,0,0,0,0,0,-5.8443,-5.8457,-5.8577,-5.8578,-5.8579,-5.8653,-5.8641,-5.875,-5.8655,-5.8626,-5.8647,-5.8643,-5.872,-5.8729,-5.8756,-5.8877,-5.8881,-5.8783,-5.8788,-5.8791,-5.8793,0,0,0,0,0,0,0,-5.8435,-5.8452,-5.8621,-5.8579,-5.858,-5.8571,-5.8582,-5.8662,-5.869,-5.8628,-5.8626,-5.8639,-5.872,-5.8749,-5.8758,-5.8883,-5.8783,-5.8789,-5.8794,-5.8797,-5.9102,-5.9105,0,0,0,0,0,0,-5.8428,-5.8446,-5.8618,-5.8624,-5.8502,-5.8578,-5.859,-5.8633,-5.8689,-5.8695,-5.8642,-5.8637,-5.8738,-5.875,-5.8762,-5.8897,-5.8791,-5.8797,-5.8802,-5.9098,-5.9102,-5.9107,0,0,0,0,0,0,-5.8423,-5.8444,-5.8613,-5.8535,-5.8556,-5.8585,-5.8633,-5.8636,-5.8666,-5.87,-5.8704,-5.8667,-5.8736,-5.8751,-5.8846,-5.89,-5.8801,-5.8807,-5.9093,-5.9099,-5.9104,-5.9169,0,0,0,0,0,0,-5.8417,-5.8442,-5.8486,-5.8536,-5.856,-5.8697,-5.8637,-5.8641,-5.8679,-5.8674,-5.8724,-5.8729,-5.8735,-5.8835,-5.8853,-5.8908,-5.8813,-5.9089,-5.9096,-5.9103,-5.9162,-5.9176,-5.9188,0,0,0,0,0,-5.8408,-5.8498,-5.8488,-5.8509,-5.8616,-5.87,-5.8714,-5.872,-5.8683,-5.8727,-5.8749,-5.8728,-5.8891,-5.8845,-5.8865,-5.8923,-5.9085,-5.9094,-5.9102,-5.9156,-5.9173,-5.9187,0,0,0,0,0,0,-5.8452,-5.8505,-5.8494,-5.8604,-5.8648,-5.8695,-5.875,-5.8737,-5.8792,-5.8784,-5.8788,-5.8799,-5.8896,-5.8919,-5.8866,-5.9035,-5.8983,-5.8995,-5.9017,-5.9033,-5.9046,-5.9039,-5.8819,0,0,0,0,0,-5.8475,-5.854,-5.8582,-5.8675,-5.8698,-5.872,-5.8757,-5.8758,-5.8803,-5.8822,-5.885,-5.8894,-5.8955,-5.8995,-5.9053,-5.9165,-5.9175,-5.9214,-5.9227,-5.9238,-5.9249,-5.931,-5.9328,-5.9134,-5.9134,-5.9134,0,0,-5.8521,-5.8558,-5.8599,-5.8685,-5.8719,-5.8786,-5.8736,-5.8809,-5.8858,-5.8832,-5.8924,-5.8946,-5.8995,-5.9098,-5.9145,-5.912,-5.9305,-5.9249,-5.9257,-5.9262,-5.9321,-5.9339,-5.9356,-5.914,-5.9139,-5.9138,0,0,-5.8641,-5.8676,-5.8758,-5.8794,-5.8847,-5.8862,-5.8881,-5.893,-5.8945,-5.9037,-5.9019,-5.9077,-5.9182,-5.9218,-5.925,-5.9384,-5.9367,-5.9403,-5.9471,-5.953,-5.9546,-5.9559,-5.9608,-5.9625,-5.9414,-5.9414,-5.9414,0,-5.8692,-5.8794,-5.88,-5.8876,-5.8913,-5.8895,-5.8977,-5.901,-5.908,-5.9106,-5.9077,-5.9209,-5.9241,-5.9353,-5.9386,-5.9412,-5.9434,-5.9397,-5.9543,-5.9557,-5.957,-5.9616,-5.9634,-5.9418,-5.9418,-5.9417,-5.9417,0,-5.8855,-5.8926,-5.8985,-5.9055,-5.9099,-5.9177,-5.9194,-5.9237,-5.9234,-5.9252,-5.9346,-5.9383,-5.9449,-5.9475,-5.9472,-5.9587,-5.957,-5.9542,-5.949,-5.9592,-5.9636,-5.9654,-5.9424,-5.9422,-5.9421,-5.942,0,0,-5.9005,-5.9078,-5.91,-5.9132,-5.919,-5.9244,-5.9321,-5.9387,-5.9425,-5.9473,-5.9537,-5.9627,-5.9603,-5.9639,-5.9639,-5.9692,-5.9797,-5.9658,-5.9659,-5.9683,-5.9927,-5.9948,-5.9968,-5.9786,-5.9789,-5.9792,-5.9923,0,-5.9131,-5.9268,-5.9276,-5.94,-5.9466,-5.9449,-5.9516,-5.9558,-5.9576,-5.9633,-5.9652,-5.9717,-5.9679,-5.9701,-5.9752,-5.9773,-5.9846,-5.9764,-5.9845,-5.9848,-5.9834,-5.9991,-6.0013,-6.0135,-5.994,-5.9943,-5.9945,0,-5.9295,-5.9351,-5.9483,-5.9533,-5.956,-5.9621,-5.9682,-5.9738,-5.9785,-5.9794,-5.9836,-5.9829,-5.9907,-5.9852,-5.9958,-5.9903,-5.9936,-5.9952,-5.9956,-5.9965,-5.9903,-6.0004,-6.0174,-6.0193,-5.9972,-5.9969,-5.9967,0,-5.9393,-5.9501,-5.9594,-5.9621,-5.9681,-5.9724,-5.9751,-5.9795,-5.9835,-5.9888,-5.9913,-5.9974,-6.0008,-6.0054,-6.0064,-6.0023,-6.0171,-6.0117,-6.0181,-6.0181,-6.0213,-6.0211,-6.0392,-6.0234,-6.0233,-6.0233,-6.0232,0,-5.9533,-5.9614,-5.9639,-5.9696,-5.9786,-5.9794,-5.9882,-5.9906,-5.9945,-6.0006,-5.9994,-6.005,-6.006,-6.0118,-6.0126,-6.0213,-6.0228,-6.0237,-6.0239,-6.0239,-6.0238,-6.0261,-6.0253,-6.0238,-6.0237,-6.0236,-6.0235,0,-5.9658,-5.9677,-5.9778,-5.9827,-5.9841,-5.9906,-5.9947,-6.0001,-6.0018,-6.0095,-6.0113,-6.0139,-6.0208,-6.0222,-6.0302,-6.0307,-6.0412,-6.0404,-6.0397,-6.0396,-6.046,-6.0454,-6.0663,-6.0691,-6.0513,-6.0515,-6.0516,0,-5.9746,-5.9809,-5.9865,-5.9906,-5.9936,-6.0001,-6.0042,-6.0051,-6.0094,-6.0153,-6.0201,-6.0268,-6.0323,-6.0432,-6.0457,-6.0519,-6.0513,-6.0582,-6.0522,-6.0521,-6.0515,-6.0511,-6.0518,-6.0593,-6.0595,-6.0597,-6.0598,0,-5.9901,-5.9908,-5.9969,-6.0033,-6.0083,-6.0134,-6.0182,-6.0215,-6.0231,-6.028,-6.0351,-6.0393,-6.0476,-6.0543,-6.0605,-6.063,-6.0617,-6.0617,-6.0635,-6.0636,-6.063,-6.0635,-6.0429,-6.0612,-6.061,-6.0609,-6.0609,-6.0608,-6.0011,-6.0066,-6.0116,-6.0183,-6.0221,-6.0267,-6.0321,-6.0345,-6.0405,-6.0475,-6.0476,-6.0554,-6.0599,-6.0681,-6.071,-6.077,-6.0748,-6.0775,-6.0781,-6.0788,-6.0794,-6.062,-6.0781,-6.0781,-6.078,-6.078,-6.078,0,-6.0166,-6.0198,-6.026,-6.0329,-6.0383,-6.0367,-6.0419,-6.0465,-6.0534,-6.0578,-6.0633,-6.0714,-6.0779,-6.081,-6.0874,-6.0916,-6.0911,-6.0933,-6.093,-6.0936,-6.081,-6.0788,-6.0935,-6.0935,-6.0935,-6.0935,-6.0935,-6.0935,-6.0254,-6.0347,-6.036,-6.0471,-6.0501,-6.0578,-6.061,-6.0651,-6.0687,-6.078,-6.0835,-6.0855,-6.0893,-6.096,-6.1019,-6.1026,-6.1051,-6.1075,-6.1079,-6.0961,-6.0945,-6.093,-6.091,-6.108,-6.108,-6.1201,-6.1202,-6.1203]}]]